SCP
0 0 0 0 0 0 0 0 0 0 0 0 0 0 0 0 0 1 1 1 1 1 1 1 1 1 1 1 1 1 1 1 1 1 1 1 1 1 1 1 1 1 1 1
0 0 0 0 0 0 0 0 0 0 0 0 0 0 0 0 1 1 1 1 1 1 1 1 1 1 1 1 1 1 1 1 1 1 1 1 1 1 1 1 1 1 1 1
0 0 0 0 0 0 0 0 0 0 0 0 0 0 0 0 1 1 1 1 1 1 1 1 1 1 1 1 1 1 1 1 1 1 1 1 1 1 1 1 1 1 1 1
0 0 0 0 0 0 0 0 0 0 0 0 0 0 0 0 1 1 1 1 1 1 1 1 1 1 1 1 1 1 1 1 1 1 1 1 1 1 1 1 1 1 1 1
0 0 0 0 0 0 0 0 0 0 0 0 0 0 0 0 1 1 1 1 1 1 1 1 1 1 1 1 1 1 1 1 1 1 1 1 1 1 1 1 1 1 1 1
0 0 0 0 0 0 0 0 0 0 0 0 0 0 0 0 1 1 1 1 1 1 1 1 1 1 1 1 1 1 1 1 1 1 1 1 1 1 1 1 1 1 1 1
0 0 0 0 0 0 0 0 0 0 0 0 0 0 0 0 1 1 1 1 1 1 1 1 1 1 1 1 1 1 1 1 1 1 1 1 1 1 1 1 1 1 1 1
0 0 0 0 0 0 0 0 0 0 0 0 0 1 0 0 0 0 0 1 1 1 1 1 1 1 1 1 1 1 1 1 1 1 1 1 1 1 1 1 1 1 1 1
0 0 0 0 0 0 0 1 0 0 0 0 0 0 0 0 0 0 0 0 1 1 1 1 1 1 1 1 1 1 1 1 1 1 1 1 1 1 1 1 0 0 0 0
0 0 0 0 0 0 0 0 0 0 0 0 0 0 0 0 0 0 0 0 1 1 1 1 1 1 1 1 1 1 1 1 1 1 1 1 1 0 0 0 0 0 0 0
0 0 0 0 0 0 0 0 0 0 0 0 0 0 0 0 0 0 0 0 0 1 1 1 1 1 1 1 1 1 1 1 1 1 1 0 0 0 0 0 0 0 0 0
0 0 0 0 0 0 0 0 0 0 0 0 0 0 0 0 0 0 0 0 1 1 1 1 1 1 1 1 1 1 1 1 1 1 1 0 0 0 0 0 0 0 0 0
0 0 0 0 0 0 0 0 0 0 0 0 0 0 0 0 0 1 1 1 1 1 1 1 1 1 1 1 1 1 1 1 1 1 0 0 0 0 0 0 0 0 0 0
0 0 0 0 0 0 0 0 0 0 0 0 0 0 0 0 1 1 1 1 1 1 1 1 1 1 1 1 1 1 1 1 1 1 0 0 0 0 0 0 0 0 0 0
0 0 0 0 0 0 0 0 0 0 0 0 0 0 0 0 1 1 1 1 1 1 1 1 1 1 1 1 1 1 1 1 0 0 0 0 0 0 0 0 0 0 0 0
0 0 0 0 0 0 0 0 0 0 0 0 0 0 0 0 0 0 1 1 1 1 1 1 1 1 1 1 1 1 1 0 0 0 0 0 0 0 0 0 0 0 0 0
0 0 0 0 0 0 0 0 0 0 0 0 0 0 0 0 0 0 0 0 0 0 0 0 0 0 1 1 0 0 0 0 0 0 0 0 0 0 0 0 0 0 0 0
0 0 0 0 0 0 0 0 0 0 0 0 0 0 0 0 0 0 0 0 0 0 0 0 0 0 0 0 0 0 0 0 0 0 0 0 0 0 0 0 0 0 0 0
0 0 0 0 0 0 0 0 0 0 0 0 0 0 0 0 0 0 0 0 0 0 0 0 0 0 0 0 0 0 0 0 0 0 0 0 0 0 0 0 0 0 0 0
0 0 0 0 0 0 0 0 0 0 0 0 0 0 0 0 0 0 0 0 0 0 0 0 0 0 0 0 0 0 0 0 0 0 0 0 0 0 0 0 0 0 0 0
0 0 0 0 0 0 0 0 0 0 0 0 0 0 0 0 0 0 0 0 0 0 0 0 0 0 0 0 0 0 0 0 0 0 0 0 0 0 0 0 0 0 0 0
0 0 0 0 0 0 0 0 0 0 0 0 0 0 0 0 0 0 0 0 0 0 0 0 0 0 0 0 0 0 0 0 0 0 0 0 0 0 0 0 0 0 0 0
0 0 0 0 0 0 0 0 0 0 0 0 0 0 0 0 0 0 0 0 0 0 0 0 0 0 0 0 0 0 0 0 0 0 0 0 0 0 0 0 0 0 0 0
0 0 0 0 0 0 0 0 0 0 0 0 0 0 0 0 0 0 0 0 0 0 0 0 0 0 0 0 0 0 0 0 0 0 0 0 0 0 0 0 0 0 0 0
0 0 0 0 0 0 0 0 0 0 0 0 0 0 0 0 0 0 0 0 0 0 0 0 0 0 0 0 0 0 0 0 0 0 0 0 0 0 0 0 0 0 0 0
0 0 0 0 0 0 0 0 0 0 0 0 0 0 0 0 0 0 0 0 0 0 0 0 0 0 0 0 0 0 0 0 0 0 0 0 0 0 0 0 0 0 0 0
0 0 0 0 0 0 0 0 0 0 0 0 0 0 0 0 0 0 0 0 0 0 0 0 0 0 0 0 0 0 0 0 0 0 0 0 0 0 0 0 0 0 0 0
Wind_Speed
7 4 7 10 13 14 15 14 12 10 10 6 3 2 1 0 1 2 3 3 4 4 5 5 6 6 6 7 7 6 6 6 6 6 6 7 7 7 7 7 7 6 6 6
9 8 9 11 12 14 15 15 14 12 9 2 2 2 2 2 2 2 2 3 3 4 5 5 5 6 6 6 6 6 6 6 5 5 6 6 6 6 6 6 6 5 5 5
10 10 11 13 13 14 14 13 13 13 8 4 4 4 3 2 2 1 1 2 2 3 3 4 4 4 5 6 6 6 5 5 5 5 6 6 6 6 6 6 5 5 4 4
8 9 14 5 4 9 11 10 9 8 5 5 4 3 2 1 1 1 1 1 1 2 3 3 3 4 5 6 6 6 6 5 4 4 4 5 5 5 5 4 4 4 3 3
8 11 9 6 6 7 9 8 6 7 5 4 4 4 3 1 1 1 1 1 1 1 2 3 3 4 5 6 6 6 5 5 4 4 4 4 5 4 4 4 4 4 3 3
9 11 9 5 4 4 8 8 5 5 5 5 6 7 3 2 2 3 3 2 2 2 2 3 3 4 5 6 5 5 5 4 5 4 4 4 4 4 4 4 4 4 4 4
12 11 5 3 2 6 10 3 3 3 4 5 4 1 3 3 3 3 3 3 2 2 2 2 3 4 5 5 5 4 5 5 5 5 5 5 4 4 4 5 5 5 5 5
11 12 6 3 4 4 2 4 1 1 2 2 1 3 3 3 3 2 2 3 3 3 3 3 3 4 5 4 4 5 5 6 6 5 5 5 5 5 5 5 6 5 5 5
4 1 4 2 1 2 2 2 1 0 1 2 3 3 3 3 2 2 2 3 3 3 4 4 3 4 5 4 4 6 6 6 6 6 5 5 5 5 5 4 4 4 4 5
4 2 1 1 1 1 1 2 2 1 1 3 4 3 3 2 2 2 2 3 3 3 4 3 3 4 4 4 5 6 7 7 7 7 6 6 4 3 3 3 3 3 4 4
5 3 3 2 1 2 2 2 1 1 1 3 4 4 3 2 2 2 2 2 2 3 4 3 3 4 4 4 5 7 8 7 7 7 7 7 7 6 5 6 4 3 3 3
4 2 2 1 1 2 2 1 1 0 1 2 3 4 3 3 2 2 3 2 3 3 4 4 4 4 4 4 5 7 7 7 6 6 7 7 8 8 14 11 14 13 10 6
3 3 3 3 3 3 2 1 1 0 1 3 3 4 4 3 2 3 3 3 3 3 4 4 4 5 4 4 5 6 6 6 6 6 7 7 7 7 8 9 14 15 13 12
4 4 4 3 2 1 1 1 1 1 2 3 3 3 3 3 3 3 3 3 4 5 5 5 5 5 4 5 5 6 7 7 6 6 6 7 7 6 6 7 8 8 10 11
4 4 4 2 2 2 2 2 2 2 3 3 4 3 3 3 4 4 4 4 5 5 5 5 5 5 5 5 6 7 7 6 6 6 7 7 7 7 7 8 8 8 7 8
3 3 4 4 3 3 2 2 2 3 3 4 4 3 4 4 4 5 5 5 5 6 5 6 6 5 5 6 7 6 6 9 8 7 7 7 7 7 7 7 7 7 6 6
5 5 5 4 4 4 4 3 3 3 3 4 4 4 5 6 6 6 6 6 6 6 5 6 6 5 6 6 6 6 7 8 9 8 7 7 7 7 7 7 7 7 7 7
5 4 5 4 4 4 4 4 5 5 5 5 5 5 6 6 6 7 7 7 7 7 6 6 6 6 6 7 6 6 7 7 7 7 7 7 7 7 7 8 8 8 8 8
3 3 4 4 4 4 5 5 5 5 5 5 6 6 7 7 7 7 7 7 7 6 5 6 7 7 7 7 7 6 7 8 8 8 8 8 7 7 7 7 8 7 8 7
2 2 3 3 4 4 5 5 6 5 5 6 7 8 8 8 8 7 7 6 4 5 6 6 7 7 7 7 6 7 8 9 9 8 7 7 7 7 7 8 8 7 7 7
2 2 3 4 4 4 5 6 6 7 7 8 8 9 9 9 8 7 7 6 6 6 7 7 6 6 6 6 6 7 7 8 8 8 7 7 7 7 7 7 7 7 6 6
2 2 3 4 5 5 5 6 7 8 8 9 9 9 9 9 9 8 7 5 6 5 5 6 6 7 7 7 7 7 7 8 8 7 7 7 7 7 7 7 7 6 6 6
3 3 4 5 6 6 7 7 8 8 8 9 8 9 9 7 6 7 6 5 6 6 6 7 8 8 6 6 7 7 7 7 7 7 7 7 7 7 7 7 6 6 6 5
4 5 5 6 7 8 8 8 7 7 9 8 8 8 8 7 6 6 8 8 8 8 8 8 8 6 4 6 7 7 7 7 7 7 7 7 7 6 6 6 6 6 6 6
5 5 6 6 6 6 7 8 9 9 9 8 8 8 6 6 7 7 8 9 9 8 8 8 6 4 5 6 7 7 7 6 6 6 7 6 6 6 6 6 6 5 5 5
5 4 5 5 5 5 5 5 6 6 7 8 7 7 7 7 8 7 7 9 10 8 7 6 6 5 6 7 7 7 7 7 6 6 6 6 6 6 6 6 7 5 5 5
6 5 5 6 5 5 5 5 6 6 7 8 8 7 7 7 7 8 9 8 7 7 6 6 6 6 6 6 7 6 6 6 5 5 5 5 5 5 6 6 5 4 4 4
Wind_Direction
253 227 205 208 211 211 221 234 241 233 233 228 238 259 274 228 155 124 113 117 127 142 149 157 161 167 171 168 168 173 180 188 193 196 194 196 201 205 205 209 211 207 211 214
225 221 219 222 220 220 223 231 240 245 240 210 233 235 227 213 195 172 127 116 119 125 142 153 163 167 166 165 166 169 174 178 182 188 188 190 195 198 200 205 209 206 209 207
219 206 217 224 221 220 222 227 235 238 236 212 213 216 226 222 208 184 115 93 104 116 139 153 161 163 161 157 156 159 163 166 175 184 187 189 191 192 197 200 201 202 204 201
222 205 223 213 205 224 226 224 234 240 230 221 215 206 212 216 181 147 102 72 99 118 133 144 142 151 153 150 151 155 159 167 172 176 178 179 186 191 192 192 188 184 184 182
225 218 220 200 202 213 216 217 226 227 214 205 193 188 183 151 180 123 80 53 83 115 131 137 146 151 151 148 148 152 160 165 162 166 170 170 176 181 182 169 163 164 160 152
227 227 223 188 159 215 227 216 204 214 205 205 209 219 178 132 103 80 61 55 75 95 111 131 143 149 154 151 152 154 159 158 155 159 158 160 160 158 153 151 152 148 134 132
227 230 223 110 156 199 218 188 144 199 206 211 224 315 90 102 87 78 69 68 82 91 96 109 132 142 145 139 140 143 142 143 143 145 145 143 138 137 141 139 132 129 122 114
222 228 208 104 196 211 28 29 85 177 208 205 138 111 117 104 93 85 72 75 89 96 93 96 121 135 132 126 130 133 135 134 131 132 132 129 124 122 125 129 130 128 120 112
237 238 65 53 43 34 346 329 351 254 217 157 147 130 118 102 92 81 67 73 87 106 102 97 107 120 123 125 136 136 132 128 126 120 114 114 119 123 128 133 133 130 129 124
228 189 140 93 65 16 333 320 310 276 190 163 149 141 131 114 91 74 64 86 97 111 107 100 101 104 110 125 136 136 131 127 123 118 109 97 92 95 99 103 121 123 124 123
220 210 206 172 14 352 344 331 338 22 142 161 154 149 141 125 95 69 66 82 88 99 105 100 96 96 97 117 135 134 129 127 125 118 110 97 78 54 63 54 39 80 104 106
231 208 247 230 335 329 320 342 13 124 135 151 156 146 139 125 108 87 85 84 84 87 91 95 97 102 107 117 129 133 131 134 132 127 121 117 109 86 58 62 58 55 57 77
278 286 286 279 292 297 291 340 12 47 143 149 146 140 134 128 119 104 101 97 91 91 91 91 94 101 108 115 124 128 127 130 129 128 126 123 121 118 108 81 67 61 58 67
242 246 238 244 254 262 207 154 132 131 151 152 144 142 140 133 120 113 105 96 91 92 90 91 90 93 100 111 119 124 126 120 122 123 123 122 122 123 121 116 105 87 70 72
237 237 229 219 210 192 175 164 156 153 148 145 142 146 145 137 123 111 104 100 98 92 90 90 86 84 93 107 114 117 117 117 114 115 117 117 121 121 118 115 110 108 105 91
238 231 217 205 207 195 184 184 180 172 162 150 146 146 140 130 122 118 114 110 102 90 88 88 86 86 93 101 107 105 98 98 108 114 115 115 118 118 115 111 108 106 101 101
232 226 217 213 214 206 197 199 190 178 167 153 152 152 146 141 132 121 109 100 93 87 85 86 88 93 99 104 110 109 109 108 110 112 110 110 110 108 109 110 108 103 94 79
242 237 228 220 216 209 198 189 176 169 162 156 154 152 149 142 131 119 112 108 101 91 81 83 91 97 99 102 103 109 114 115 112 108 107 107 108 110 112 110 109 107 105 100
220 220 215 212 200 194 182 166 161 160 154 155 152 143 134 127 120 115 115 114 110 102 90 90 93 101 100 97 101 107 109 110 107 104 106 109 112 112 111 109 106 102 100 98
191 190 189 167 161 161 154 151 152 151 147 146 139 131 126 122 119 115 108 97 87 90 102 103 104 99 101 98 98 107 110 112 111 111 110 110 108 107 106 105 103 102 102 101
147 163 151 138 131 130 135 142 143 138 136 137 134 130 126 121 118 117 114 103 89 91 101 102 101 104 107 109 109 108 109 111 112 112 111 109 108 108 107 106 105 102 100 98
116 122 122 119 118 119 121 127 130 131 130 128 127 126 123 120 118 107 93 94 100 98 106 102 98 91 99 110 107 106 108 110 111 111 109 110 110 109 108 107 105 103 100 97
105 108 109 111 117 120 118 118 120 122 121 122 125 125 120 116 117 117 110 102 108 101 95 88 88 92 101 108 107 109 109 109 110 112 112 113 113 113 113 112 109 107 106 105
92 97 99 106 112 115 114 113 112 112 113 112 115 119 121 118 108 100 103 102 96 99 95 93 97 103 114 109 109 110 109 109 110 113 115 116 117 115 113 112 110 108 108 108
92 99 102 110 113 114 117 121 118 117 116 110 109 111 109 105 107 105 106 106 106 106 106 106 112 119 115 106 109 109 106 101 103 109 113 115 117 116 115 114 113 113 110 107
87 94 98 102 106 113 120 123 120 118 114 110 104 102 102 104 107 110 111 112 111 112 114 119 120 121 107 106 106 106 108 113 114 111 109 113 113 113 112 113 115 113 111 109
94 96 99 100 98 102 108 110 109 109 109 110 108 107 109 111 113 113 114 114 116 115 113 112 110 107 106 106 106 108 110 110 110 109 113 113 113 114 117 121 120 118 117 114